CZ-8A R/B, 62980

Orbit data source: Space-Track

CZ-8A R/B, 62980 is space debris in LEO originally from a launch on Tue, 11 Feb 2025 UTC launched from the Wenchang Satellite Launch Center (WSC). Debris objects in space refer to the collection of defunct objects orbiting the Earth. Examples of debris include non-operational satellites, rocket bodies, and fragments generated from explosions, collisions, or faulty payload assembly.

Loading next visibility...
Identifier
62980, 2025-030K
Orbit
LEO
Country
Flag of CNCN / PRC
Related business
Manufacturer
CALT
Mission
Spacecraft
Bus & Motor
CZ-8A STAGE 3, Unknown motor
Mass
~2,800 kg wet, ~2,800 kg dry
Launch date (UTC)
2025-02-11 (7 months ago)
Launch vehicle
Unknown
Launch site
Wenchang Satellite Launch Center (WSC)
Object type
Payload
Rocket body
Debris
Shape & HBR
Cyl, 6.2 m
Radar Cross Section
Large (>1 m²)

Expand to show TLE details & history
Last TLE update: 11 hours ago

TLE from 11 hours ago
0 CZ-8A R/B
1 62980U 25030K   25243.31811705  .00000312  00000-0  16257-3 0  9997
2 62980  50.0045  95.2935 0118656  73.3108 288.0794 14.32785676 28808
Epoch: 2025-08-31T07:38Z
TLE epoch observation values (Epoch: 2025-08-31T07:38:05.313Z)
Latitude
-0.00003°
Longitude
1.03156°
Altitude
757.516 km
Speed
7.49 km/s
True Right ascension
06h 21m 10s
True Declination
0° 00' 00"
Sunlit
Object was in daylight at epoch
Visualization orbit readout
Latitude
Unknown
Longitude
Unknown
Altitude
Unknown
Speed
Unknown
Apparent Right ascension
Unknown
Apparent Declination
Unknown
Sunlit
N/A
Visualization observer readout
Local Sidereal Time
10:24:45
Azimuth
Unknown
Elevation
Unknown
Doppler factor
Unknown
Orbital elements
Apogee altitude
868.148 km
Perigee altitude
698.202 km
Semi-major axis
7,161.312 km
Eccentricity
0.01187
Inclination
50.0045°
RAAN
95.2935°
Arg. of periapsis
73.3108°
True anomaly
286.78097°
Mean anomaly
288.0794°
Eccentric anomaly
287.43077°
Mean motion
3.58141 °/min
Orbital period
100.52 mins
BSTAR
0.00016257
Loading maneuver chart data...
Computing Atmospheric mass density...
Loading historical data...
Loading historical data...
Loading historical data...
Loading historical data...
Loading historical data...
Loading historical data...
Loading historical data...

Documentation

Showing up to 5 results
|